| time (UTC) | temp C | wind direction | speed KPH | gust KPH | rain 1hr cm | rain 24hr cm | rain mn cm | humidity % | barometer mb |
| 20260504195039 | 23 | 322 | 4.8 | 11.3 | 0.00 | 0.03 | 0.03 | 37 | 1010.0 |
| 20260504194519 | 22 | 285 | 4.8 | 9.7 | 0.03 | 0.03 | 0.03 | 37 | 1010.0 |
| 20260504194019 | 22 | 347 | 4.8 | 14.5 | 0.03 | 0.03 | 0.03 | 36 | 1010.0 |
| 20260504193519 | 22 | 92 | 4.8 | 11.3 | 0.03 | 0.03 | 0.03 | 37 | 1010.1 |
| 20260504193019 | 22 | 76 | 4.8 | 11.3 | 0.03 | 0.03 | 0.03 | 37 | 1010.2 |
| 20260504192658 | 22 | 345 | 6.4 | 14.5 | 0.03 | 0.03 | 0.03 | 37 | 1010.1 |
| 20260504192017 | 22 | 331 | 3.2 | 11.3 | 0.03 | 0.03 | 0.03 | 37 | 1010.2 |
| 20260504191520 | 22 | 349 | 6.4 | 12.9 | 0.03 | 0.03 | 0.03 | 36 | 1010.3 |
| 20260504191040 | 22 | 70 | 4.8 | 12.9 | 0.03 | 0.03 | 0.03 | 36 | 1010.3 |
| 20260504190540 | 22 | 215 | 3.2 | 12.9 | 0.03 | 0.03 | 0.03 | 37 | 1010.4 |
| 20260504190020 | 22 | 350 | 3.2 | 8.0 | 0.03 | 0.03 | 0.03 | 38 | 1010.5 |
| 20260504185520 | 22 | 347 | 4.8 | 9.7 | 0.03 | 0.03 | 0.03 | 39 | 1010.6 |
| 20260504185017 | 21 | 122 | 4.8 | 9.7 | 0.03 | 0.03 | 0.03 | 38 | 1010.6 |
| 20260504184517 | 22 | 142 | 4.8 | 12.9 | 0.00 | 0.03 | 0.00 | 37 | 1010.7 |
| 20260504184018 | 21 | 353 | 3.2 | 12.9 | 0.00 | 0.03 | 0.00 | 38 | 1010.8 |
| 20260504183537 | 21 | 10 | 4.8 | 14.5 | 0.00 | 0.03 | 0.00 | 38 | 1010.9 |
| 20260504183038 | 21 | 336 | 8.0 | 17.7 | 0.00 | 0.03 | 0.00 | 38 | 1011.0 |
| 20260504182518 | 21 | 323 | 6.4 | 14.5 | 0.00 | 0.03 | 0.00 | 38 | 1011.0 |
| 20260504182018 | 21 | 347 | 6.4 | 17.7 | 0.00 | 0.03 | 0.00 | 38 | 1011.1 |
| 20260504181521 | 21 | 336 | 6.4 | 16.1 | 0.00 | 0.03 | 0.00 | 39 | 1011.1 |
| 20260504181021 | 21 | 333 | 6.4 | 14.5 | 0.00 | 0.03 | 0.00 | 38 | 1011.2 |
| 20260504180538 | 21 | 89 | 4.8 | 14.5 | 0.00 | 0.03 | 0.00 | 39 | 1011.3 |
| 20260504180018 | 21 | 332 | 4.8 | 14.5 | 0.00 | 0.03 | 0.00 | 40 | 1011.3 |
| 20260504175518 | 21 | 357 | 6.4 | 17.7 | 0.00 | 0.03 | 0.00 | 39 | 1011.4 |
| 20260504175018 | 21 | 357 | 4.8 | 11.3 | 0.00 | 0.03 | 0.00 | 39 | 1011.6 |
| 20260504174518 | 21 | 60 | 6.4 | 14.5 | 0.00 | 0.03 | 0.00 | 39 | 1011.7 |
| 20260504174019 | 21 | 107 | 4.8 | 14.5 | 0.00 | 0.03 | 0.00 | 39 | 1011.6 |
| 20260504173538 | 21 | 326 | 4.8 | 14.5 | 0.00 | 0.03 | 0.00 | 40 | 1011.7 |
| 20260504173019 | 21 | 66 | 4.8 | 12.9 | 0.00 | 0.03 | 0.00 | 41 | 1011.7 |
| 20260504172519 | 20 | 320 | 4.8 | 11.3 | 0.00 | 0.03 | 0.00 | 41 | 1011.7 |
| 20260504172018 | 20 | 94 | 4.8 | 12.9 | 0.00 | 0.03 | 0.00 | 40 | 1011.7 |
| 20260504171519 | 20 | 111 | 4.8 | 16.1 | 0.00 | 0.03 | 0.00 | 39 | 1011.9 |
| 20260504171019 | 21 | 111 | 4.8 | 16.1 | 0.00 | 0.03 | 0.00 | 40 | 1011.9 |
| 20260504170519 | 21 | 347 | 4.8 | 14.5 | 0.00 | 0.03 | 0.00 | 39 | 1012.0 |
| 20260504151019 | 18 | 122 | 6.4 | 12.9 | 0.00 | 0.03 | 0.00 | 44 | 1013.3 |
| 20260504150558 | 18 | 105 | 6.4 | 14.5 | 0.00 | 0.03 | 0.00 | 44 | 1013.2 |
| 20260504141019 | 17 | 143 | 4.8 | 9.7 | 0.00 | 0.03 | 0.00 | 53 | 1013.5 |
| 20260504140519 | 17 | 82 | 3.2 | 12.9 | 0.00 | 0.03 | 0.00 | 52 | 1013.5 |
| 20260504130540 | 15 | 121 | 3.2 | 9.7 | 0.00 | 0.03 | 0.00 | 58 | 1014.1 |
| 20260504110525 | 7 | 125 | 3.2 | 4.8 | 0.00 | 0.03 | 0.00 | 81 | 1014.8 |
| 20260504100518 | 6 | 136 | 1.6 | 8.0 | 0.00 | 0.03 | 0.00 | 76 | 1014.3 |
| 20260504081517 | 5 | 139 | 1.6 | 4.8 | 0.00 | 0.03 | 0.00 | 75 | 1014.1 |
| 20260504081017 | 5 | 137 | 3.2 | 6.4 | 0.00 | 0.03 | 0.00 | 74 | 1014.1 |
| 20260504080517 | 5 | 140 | 3.2 | 4.8 | 0.00 | 0.03 | 0.00 | 76 | 1014.1 |
| 20260504050520 | 6 | 141 | 3.2 | 4.8 | 0.00 | 0.03 | 0.00 | 69 | 1013.8 |
| 20260504050020 | 6 | 139 | 1.6 | 3.2 | 0.00 | 0.03 | 0.00 | 69 | 1013.8 |
| 20260504045520 | 6 | 135 | 3.2 | 4.8 | 0.00 | 0.03 | 0.00 | 70 | 1013.9 |
| 20260504045020 | 7 | 141 | 3.2 | 4.8 | 0.00 | 0.03 | 0.00 | 69 | 1013.8 |
| 20260504044520 | 7 | 138 | 3.2 | 4.8 | 0.00 | 0.03 | 0.00 | 70 | 1013.8 |
| 20260504044057 | 7 | 135 | 3.2 | 4.8 | 0.00 | 0.03 | 0.00 | 69 | 1013.7 |
| 20260504043517 | 7 | 137 | 3.2 | 4.8 | 0.00 | 0.03 | 0.00 | 69 | 1013.6 |
| 20260504043038 | 7 | 136 | 3.2 | 4.8 | 0.00 | 0.03 | 0.00 | 69 | 1013.6 |
| 20260504042518 | 7 | 138 | 3.2 | 4.8 | 0.00 | 0.03 | 0.00 | 69 | 1013.5 |
| 20260504042017 | 7 | 133 | 3.2 | 4.8 | 0.00 | 0.03 | 0.00 | 70 | 1013.5 |
| 20260504041558 | 7 | 133 | 3.2 | 4.8 | 0.00 | 0.03 | 0.00 | 69 | 1013.4 |
| 20260504041018 | 7 | 137 | 3.2 | 4.8 | 0.00 | 0.03 | 0.00 | 69 | 1013.4 |
| 20260504040521 | 7 | 135 | 3.2 | 4.8 | 0.00 | 0.03 | 0.00 | 68 | 1013.3 |
| 20260504040018 | 7 | 136 | 3.2 | 4.8 | 0.00 | 0.03 | 0.00 | 69 | 1013.3 |
| 20260504035538 | 7 | 135 | 3.2 | 4.8 | 0.00 | 0.03 | 0.03 | 68 | 1013.3 |
| 20260504035038 | 7 | 138 | 1.6 | 4.8 | 0.00 | 0.03 | 0.03 | 69 | 1013.3 |
| 20260504034518 | 7 | 139 | 3.2 | 4.8 | 0.00 | 0.03 | 0.03 | 69 | 1013.2 |
| 20260504034018 | 7 | 133 | 3.2 | 4.8 | 0.00 | 0.03 | 0.03 | 70 | 1013.2 |
| 20260504033518 | 7 | 142 | 3.2 | 4.8 | 0.00 | 0.03 | 0.03 | 69 | 1013.2 |
| 20260504033018 | 7 | 135 | 3.2 | 4.8 | 0.00 | 0.03 | 0.03 | 68 | 1013.2 |
| 20260504032559 | 7 | 136 | 3.2 | 4.8 | 0.00 | 0.03 | 0.03 | 68 | 1013.2 |
| 20260504032019 | 7 | 136 | 3.2 | 4.8 | 0.00 | 0.03 | 0.03 | 67 | 1013.1 |
| 20260504031519 | 7 | 133 | 3.2 | 4.8 | 0.00 | 0.03 | 0.03 | 67 | 1013.1 |
| 20260504031019 | 7 | 134 | 3.2 | 4.8 | 0.00 | 0.03 | 0.03 | 67 | 1013.0 |
| 20260504030520 | 7 | 135 | 3.2 | 4.8 | 0.00 | 0.03 | 0.03 | 67 | 1013.1 |
| 20260504030019 | 7 | 135 | 3.2 | 4.8 | 0.00 | 0.03 | 0.03 | 65 | 1013.0 |
| 20260504025519 | 7 | 142 | 3.2 | 4.8 | 0.00 | 0.03 | 0.03 | 65 | 1013.0 |
| 20260504025039 | 7 | 128 | 3.2 | 6.4 | 0.00 | 0.03 | 0.03 | 66 | 1013.0 |
| 20260504024539 | 7 | 138 | 3.2 | 4.8 | 0.00 | 0.03 | 0.03 | 67 | 1013.1 |
| 20260504024019 | 7 | 138 | 3.2 | 6.4 | 0.00 | 0.03 | 0.03 | 65 | 1013.1 |
| 20260504023517 | 7 | 135 | 3.2 | 4.8 | 0.00 | 0.03 | 0.03 | 67 | 1013.1 |
| 20260504023036 | 7 | 137 | 3.2 | 4.8 | 0.00 | 0.03 | 0.03 | 66 | 1013.1 |
| 20260504022520 | 8 | 143 | 3.2 | 4.8 | 0.00 | 0.03 | 0.03 | 65 | 1013.1 |
| 20260504022020 | 8 | 140 | 3.2 | 6.4 | 0.00 | 0.03 | 0.03 | 64 | 1013.0 |
| 20260504021520 | 8 | 135 | 3.2 | 4.8 | 0.00 | 0.03 | 0.03 | 65 | 1013.0 |
| 20260504021020 | 8 | 135 | 3.2 | 6.4 | 0.00 | 0.03 | 0.03 | 65 | 1013.0 |
| 20260504020520 | 8 | 140 | 3.2 | 4.8 | 0.00 | 0.03 | 0.03 | 65 | 1013.0 |
| 20260504020020 | 8 | 142 | 3.2 | 3.2 | 0.00 | 0.03 | 0.03 | 65 | 1013.0 |
| 20260504015520 | 8 | 148 | 3.2 | 6.4 | 0.00 | 0.03 | 0.03 | 65 | 1013.0 |
| 20260504015018 | 8 | 138 | 3.2 | 4.8 | 0.00 | 0.03 | 0.03 | 64 | 1012.9 |
| 20260504014517 | 8 | 139 | 3.2 | 6.4 | 0.00 | 0.03 | 0.03 | 65 | 1012.9 |
| 20260504014057 | 8 | 138 | 3.2 | 4.8 | 0.00 | 0.03 | 0.03 | 63 | 1012.9 |
| 20260504013517 | 8 | 140 | 3.2 | 4.8 | 0.00 | 0.03 | 0.03 | 63 | 1012.9 |
| 20260504013018 | 8 | 145 | 3.2 | 4.8 | 0.00 | 0.03 | 0.03 | 63 | 1012.8 |
| 20260504012541 | 8 | 138 | 3.2 | 4.8 | 0.00 | 0.03 | 0.03 | 63 | 1012.8 |
| 20260504012021 | 8 | 139 | 3.2 | 6.4 | 0.00 | 0.03 | 0.03 | 62 | 1012.7 |
| 20260504011521 | 8 | 141 | 3.2 | 4.8 | 0.00 | 0.03 | 0.03 | 62 | 1012.6 |
| 20260504011018 | 8 | 141 | 3.2 | 4.8 | 0.00 | 0.03 | 0.03 | 64 | 1012.5 |
| 20260504010518 | 8 | 141 | 3.2 | 4.8 | 0.00 | 0.03 | 0.03 | 63 | 1012.4 |
| 20260504010018 | 8 | 138 | 3.2 | 4.8 | 0.00 | 0.03 | 0.03 | 64 | 1012.3 |
| 20260504005518 | 9 | 144 | 3.2 | 4.8 | 0.00 | 0.03 | 0.03 | 62 | 1012.3 |
| 20260504005038 | 9 | 144 | 3.2 | 4.8 | 0.00 | 0.03 | 0.03 | 59 | 1012.3 |
| 20260504004518 | 9 | 143 | 3.2 | 4.8 | 0.00 | 0.03 | 0.03 | 58 | 1012.3 |
| 20260504004018 | 9 | 142 | 3.2 | 4.8 | 0.00 | 0.03 | 0.03 | 59 | 1012.2 |
| 20260504003518 | 10 | 144 | 3.2 | 4.8 | 0.00 | 0.03 | 0.03 | 60 | 1012.1 |
| 20260504003019 | 10 | 139 | 3.2 | 4.8 | 0.00 | 0.03 | 0.03 | 58 | 1012.1 |
| 20260504002539 | 10 | 143 | 3.2 | 3.2 | 0.00 | 0.03 | 0.03 | 57 | 1012.1 |
| 20260504002019 | 10 | 143 | 3.2 | 4.8 | 0.00 | 0.03 | 0.03 | 55 | 1012.0 |
| 20260504001519 | 10 | 141 | 3.2 | 4.8 | 0.00 | 0.03 | 0.03 | 57 | 1011.9 |
| 20260504001019 | 11 | 137 | 3.2 | 4.8 | 0.00 | 0.03 | 0.03 | 56 | 1011.8 |
| 20260504000559 | 11 | 141 | 3.2 | 4.8 | 0.00 | 0.03 | 0.03 | 55 | 1011.8 |
| 20260504000019 | 11 | 139 | 1.6 | 4.8 | 0.00 | 0.03 | 0.03 | 53 | 1011.7 |
| 20260503235519 | 11 | 145 | 1.6 | 4.8 | 0.00 | 0.03 | 0.03 | 52 | 1011.7 |
| 20260503235019 | 12 | 134 | 1.6 | 4.8 | 0.00 | 0.03 | 0.03 | 52 | 1011.6 |
| 20260503234519 | 12 | 133 | 1.6 | 4.8 | 0.00 | 0.03 | 0.03 | 50 | 1011.6 |
| 20260503234040 | 12 | 127 | 1.6 | 4.8 | 0.00 | 0.05 | 0.03 | 48 | 1011.6 |
| 20260503233516 | 13 | 134 | 1.6 | 4.8 | 0.00 | 0.05 | 0.03 | 47 | 1011.6 |
| 20260503233016 | 13 | 153 | 1.6 | 6.4 | 0.00 | 0.05 | 0.03 | 45 | 1011.6 |
| 20260503232520 | 13 | 155 | 1.6 | 8.0 | 0.00 | 0.05 | 0.03 | 44 | 1011.6 |
| 20260503232020 | 14 | 118 | 1.6 | 9.7 | 0.00 | 0.05 | 0.03 | 41 | 1011.6 |
| 20260503231519 | 14 | 329 | 1.6 | 4.8 | 0.00 | 0.05 | 0.03 | 39 | 1011.6 |
| 20260503231020 | 14 | 352 | 3.2 | 8.0 | 0.00 | 0.05 | 0.03 | 40 | 1011.5 |
| 20260503230520 | 15 | 296 | 1.6 | 4.8 | 0.00 | 0.05 | 0.03 | 38 | 1011.5 |
| 20260503230040 | 15 | 318 | 1.6 | 4.8 | 0.00 | 0.05 | 0.03 | 36 | 1011.4 |
| 20260503225517 | 15 | 342 | 3.2 | 8.0 | 0.00 | 0.05 | 0.03 | 37 | 1011.4 |
| 20260503225037 | 15 | 326 | 3.2 | 9.7 | 0.00 | 0.05 | 0.03 | 36 | 1011.4 |
| 20260503224518 | 15 | 322 | 3.2 | 11.3 | 0.00 | 0.05 | 0.03 | 37 | 1011.4 |
| 20260503224017 | 15 | 331 | 3.2 | 8.0 | 0.00 | 0.05 | 0.03 | 36 | 1011.3 |
| 20260503223517 | 15 | 329 | 1.6 | 9.7 | 0.00 | 0.05 | 0.03 | 34 | 1011.3 |
| 20260503223018 | 15 | 342 | 3.2 | 4.8 | 0.00 | 0.05 | 0.03 | 35 | 1011.3 |
| 20260503222521 | 15 | 347 | 3.2 | 8.0 | 0.00 | 0.05 | 0.03 | 34 | 1011.3 |
| 20260503222021 | 15 | 286 | 3.2 | 6.4 | 0.00 | 0.05 | 0.03 | 35 | 1011.3 |
| 20260503221518 | 15 | 309 | 3.2 | 8.0 | 0.00 | 0.05 | 0.03 | 36 | 1011.3 |
| 20260503221018 | 15 | 288 | 4.8 | 11.3 | 0.00 | 0.05 | 0.03 | 34 | 1011.4 |
| 20260503220518 | 16 | 354 | 3.2 | 8.0 | 0.00 | 0.05 | 0.03 | 33 | 1011.4 |
| 20260503220018 | 16 | 300 | 3.2 | 9.7 | 0.00 | 0.05 | 0.03 | 32 | 1011.4 |
| 20260503215518 | 16 | 332 | 3.2 | 6.4 | 0.00 | 0.05 | 0.03 | 32 | 1011.4 |
| 20260503215018 | 16 | 269 | 4.8 | 14.5 | 0.00 | 0.05 | 0.03 | 33 | 1011.4 |
| 20260503214518 | 16 | 299 | 3.2 | 9.7 | 0.00 | 0.05 | 0.03 | 34 | 1011.4 |
| 20260503214018 | 16 | 320 | 3.2 | 11.3 | 0.00 | 0.05 | 0.03 | 32 | 1011.4 |
| 20260503213518 | 15 | 305 | 4.8 | 14.5 | 0.00 | 0.05 | 0.03 | 34 | 1011.4 |
| 20260503213019 | 15 | 322 | 4.8 | 12.9 | 0.00 | 0.05 | 0.03 | 34 | 1011.3 |
| 20260503212539 | 15 | 319 | 3.2 | 11.3 | 0.00 | 0.05 | 0.03 | 34 | 1011.3 |
| 20260503212019 | 15 | 323 | 4.8 | 11.3 | 0.00 | 0.05 | 0.03 | 34 | 1011.3 |
| 20260503211519 | 15 | 346 | 4.8 | 12.9 | 0.00 | 0.05 | 0.03 | 33 | 1011.3 |
| 20260503211019 | 15 | 339 | 4.8 | 14.5 | 0.00 | 0.05 | 0.03 | 35 | 1011.4 |
| 20260503210519 | 15 | 304 | 4.8 | 16.1 | 0.00 | 0.05 | 0.03 | 35 | 1011.4 |
| 20260503210019 | 15 | 309 | 3.2 | 6.4 | 0.00 | 0.05 | 0.03 | 35 | 1011.5 |
| 20260503205559 | 15 | 309 | 4.8 | 14.5 | 0.00 | 0.05 | 0.03 | 35 | 1011.6 |
| 20260503205019 | 15 | 346 | 4.8 | 9.7 | 0.00 | 0.05 | 0.03 | 34 | 1011.6 |
| 20260503204519 | 15 | 326 | 4.8 | 12.9 | 0.00 | 0.05 | 0.03 | 34 | 1011.5 |
| 20260503204017 | 15 | 305 | 4.8 | 12.9 | 0.00 | 0.05 | 0.03 | 36 | 1011.5 |
| 20260503203516 | 15 | 319 | 3.2 | 6.4 | 0.03 | 0.05 | 0.03 | 36 | 1011.5 |
| 20260503203017 | 15 | 327 | 6.4 | 16.1 | 0.03 | 0.05 | 0.03 | 34 | 1011.5 |
| 20260503202520 | 15 | 348 | 4.8 | 11.3 | 0.03 | 0.05 | 0.03 | 34 | 1011.5 |
| 20260503202020 | 15 | 320 | 4.8 | 9.7 | 0.03 | 0.05 | 0.03 | 37 | 1011.5 |
| 20260503201520 | 14 | 341 | 4.8 | 11.3 | 0.03 | 0.05 | 0.03 | 37 | 1011.6 |
| 20260503201020 | 14 | 324 | 4.8 | 9.7 | 0.03 | 0.05 | 0.03 | 36 | 1011.6 |
| 20260503200520 | 14 | 316 | 4.8 | 16.1 | 0.03 | 0.05 | 0.03 | 35 | 1011.6 |
| 20260503200020 | 14 | 339 | 6.4 | 12.9 | 0.03 | 0.05 | 0.03 | 36 | 1011.8 |
| 20260503195517 | 14 | 324 | 4.8 | 9.7 | 0.03 | 0.05 | 0.03 | 36 | 1011.7 |